| time (UTC) | temp F | wind direction | speed MPH | gust MPH | rain 1hr in | rain 24hr in | rain mn in | humidity % | barometer mb |
| 20260905025300 | 67 | 183 | 0.0 | 0.0 | 0.00 | 0.00 | 0.00 | ||
| 20260905024747 | 68 | 33 | 0.0 | 0.0 | 0.00 | 0.00 | 0.00 | ||
| 20260905024234 | 68 | 225 | 0.0 | 0.0 | 0.00 | 0.00 | 0.00 | ||
| 20260905023722 | 68 | 90 | 0.0 | 0.0 | 0.00 | 0.00 | 0.00 | ||
| 20260905015538 | 72 | 78 | 0.0 | 0.0 | 0.00 | 0.00 | 0.00 | ||
| 20260905015025 | 73 | 270 | 0.0 | 0.0 | 0.00 | 0.00 | 0.00 | ||
| 20260905014513 | 74 | 337 | 0.0 | 0.0 | 0.00 | 0.00 | 0.00 | ||
| 20260905014000 | 76 | 60 | 0.0 | 0.0 | 0.00 | 0.00 | 0.00 | ||
| 20260905012935 | 79 | 315 | 0.0 | 0.0 | 0.00 | 0.00 | 0.00 | ||
| 20260905012421 | 82 | 322 | 0.0 | 0.0 | 0.00 | 0.00 | 0.00 | ||
| 20260905010843 | 87 | 294 | 0.0 | 0.0 | 0.00 | 0.00 | 0.00 | ||
| 20260905010333 | 88 | 294 | 0.0 | 0.0 | 0.00 | 0.00 | 0.00 | ||
| 20260905005817 | 89 | 292 | 0.0 | 0.0 | 0.00 | 0.00 | 0.00 | ||
| 20260905005306 | 90 | 296 | 0.0 | 0.0 | 0.00 | 0.00 | 0.00 | ||
| 20260905004752 | 90 | 294 | 0.0 | 0.0 | 0.00 | 0.00 | 0.00 | ||
| 20260905004238 | 90 | 296 | 0.0 | 0.0 | 0.00 | 0.00 | 0.00 | ||
| 20260905002700 | 92 | 297 | 0.0 | 0.0 | 0.00 | 0.00 | 0.00 | ||
| 20260905002147 | 93 | 294 | 0.0 | 0.0 | 0.00 | 0.00 | 0.00 | ||
| 20260905001634 | 93 | 292 | 0.0 | 0.0 | 0.00 | 0.00 | 0.00 | ||
| 20260905001121 | 93 | 286 | 0.0 | 0.0 | 0.00 | 0.00 | 0.00 | ||
| 20260905000609 | 93 | 304 | 0.0 | 0.0 | 0.00 | 0.00 | 0.00 | ||
| 20260905000056 | 92 | 294 | 0.0 | 0.0 | 0.00 | 0.00 | 0.00 | ||
| 20260904235542 | 93 | 294 | 0.0 | 0.0 | 0.00 | 0.00 | 0.00 | ||
| 20260904234517 | 93 | 292 | 0.0 | 0.0 | 0.00 | 0.00 | 0.00 | ||
| 20260904234005 | 93 | 292 | 0.0 | 0.0 | 0.00 | 0.00 | 0.00 | ||
| 20260904232938 | 89 | 299 | 0.0 | 0.0 | 0.00 | 0.00 | 0.00 | ||
| 20260904232426 | 88 | 297 | 0.0 | 0.0 | 0.00 | 0.00 | 0.00 | ||
| 20260904231400 | 93 | 173 | 0.0 | 0.0 | 0.00 | 0.00 | 0.00 | ||
| 20260904230847 | 93 | 287 | 0.0 | 0.0 | 0.00 | 0.00 | 0.00 | ||
| 20260904230335 | 94 | 288 | 0.0 | 0.0 | 0.00 | 0.00 | 0.00 | ||
| 20260904225822 | 94 | 295 | 0.0 | 0.0 | 0.00 | 0.00 | 0.00 | ||
| 20260904225308 | 92 | 295 | 0.0 | 0.0 | 0.00 | 0.00 | 0.00 | ||
| 20260904224756 | 89 | 307 | 0.0 | 0.0 | 0.00 | 0.00 | 0.00 | ||
| 20260904224243 | 86 | 294 | 0.0 | 0.0 | 0.00 | 0.00 | 0.00 | ||
| 20260904223730 | 86 | 297 | 0.0 | 0.0 | 0.00 | 0.00 | 0.00 | ||
| 20260904222152 | 88 | 302 | 0.0 | 0.0 | 0.00 | 0.00 | 0.00 | ||
| 20260904221127 | 90 | 296 | 0.0 | 0.0 | 0.00 | 0.00 | 0.00 | ||
| 20260904220613 | 90 | 293 | 0.0 | 0.0 | 0.00 | 0.00 | 0.00 | ||
| 20260904220100 | 91 | 292 | 0.0 | 0.0 | 0.00 | 0.00 | 0.00 | ||
| 20260904215548 | 90 | 295 | 0.0 | 0.0 | 0.00 | 0.00 | 0.00 | ||
| 20260904214523 | 85 | 293 | 0.0 | 0.0 | 0.00 | 0.00 | 0.00 | ||
| 20260904214009 | 85 | 295 | 0.0 | 0.0 | 0.00 | 0.00 | 0.00 | ||
| 20260904213456 | 85 | 294 | 0.0 | 0.0 | 0.00 | 0.00 | 0.00 | ||
| 20260904212943 | 85 | 296 | 0.0 | 0.0 | 0.00 | 0.00 | 0.00 | ||
| 20260904212432 | 85 | 292 | 0.0 | 0.0 | 0.00 | 0.00 | 0.00 | ||
| 20260904211919 | 85 | 150 | 0.0 | 0.0 | 0.00 | 0.00 | 0.00 | ||
| 20260904211405 | 85 | 129 | 0.0 | 0.0 | 0.00 | 0.00 | 0.00 | ||
| 20260904210852 | 85 | 292 | 0.0 | 0.0 | 0.00 | 0.00 | 0.00 | ||
| 20260904210339 | 86 | 294 | 0.0 | 0.0 | 0.00 | 0.00 | 0.00 | ||
| 20260904205827 | 86 | 296 | 0.0 | 0.0 | 0.00 | 0.00 | 0.00 | ||
| 20260904204801 | 85 | 306 | 0.0 | 0.0 | 0.00 | 0.00 | 0.00 | ||
| 20260904204248 | 85 | 324 | 0.0 | 0.0 | 0.00 | 0.00 | 0.00 | ||
| 20260904203735 | 85 | 299 | 0.0 | 0.0 | 0.00 | 0.00 | 0.00 | ||
| 20260904203223 | 85 | 294 | 0.0 | 0.0 | 0.00 | 0.00 | 0.00 | ||
| 20260904202710 | 86 | 292 | 0.0 | 0.0 | 0.00 | 0.00 | 0.00 | ||
| 20260904201644 | 88 | 307 | 0.0 | 0.0 | 0.00 | 0.00 | 0.00 | ||
| 20260904201131 | 88 | 301 | 0.0 | 0.0 | 0.00 | 0.00 | 0.00 | ||
| 20260904200618 | 88 | 299 | 0.0 | 0.0 | 0.00 | 0.00 | 0.00 | ||
| 20260904195039 | 88 | 285 | 0.0 | 0.0 | 0.00 | 0.00 | 0.00 | ||
| 20260904194527 | 88 | 295 | 0.0 | 0.0 | 0.00 | 0.00 | 0.00 | ||
| 20260904194013 | 88 | 293 | 0.0 | 0.0 | 0.00 | 0.00 | 0.00 | ||
| 20260904193501 | 88 | 292 | 0.0 | 0.0 | 0.00 | 0.00 | 0.00 | ||
| 20260904192949 | 88 | 322 | 0.0 | 0.0 | 0.00 | 0.00 | 0.00 | ||
| 20260904191922 | 86 | 295 | 0.0 | 0.0 | 0.00 | 0.00 | 0.00 | ||
| 20260904191411 | 84 | 296 | 0.0 | 0.0 | 0.00 | 0.00 | 0.00 | ||
| 20260904190857 | 84 | 292 | 0.0 | 0.0 | 0.00 | 0.00 | 0.00 | ||
| 20260904190345 | 85 | 296 | 0.0 | 0.0 | 0.00 | 0.00 | 0.00 | ||
| 20260904185831 | 85 | 299 | 0.0 | 0.0 | 0.00 | 0.00 | 0.00 | ||
| 20260904185319 | 85 | 299 | 0.0 | 0.0 | 0.00 | 0.00 | 0.00 | ||
| 20260904183739 | 87 | 300 | 0.0 | 0.0 | 0.00 | 0.00 | 0.00 | ||
| 20260904183227 | 87 | 292 | 0.0 | 0.0 | 0.00 | 0.00 | 0.00 | ||
| 20260904182715 | 86 | 292 | 0.0 | 0.0 | 0.00 | 0.00 | 0.00 | ||
| 20260904182202 | 86 | 286 | 0.0 | 0.0 | 0.00 | 0.00 | 0.00 | ||
| 20260904181649 | 86 | 292 | 0.0 | 0.0 | 0.00 | 0.00 | 0.00 | ||
| 20260904181136 | 85 | 292 | 0.0 | 0.0 | 0.00 | 0.00 | 0.00 | ||
| 20260904180623 | 83 | 294 | 0.0 | 0.0 | 0.00 | 0.00 | 0.00 | ||
| 20260904180111 | 82 | 258 | 0.0 | 0.0 | 0.00 | 0.00 | 0.00 | ||
| 20260904175045 | 80 | 356 | 0.0 | 0.0 | 0.00 | 0.00 | 0.00 | ||
| 20260904174534 | 79 | 315 | 0.0 | 0.0 | 0.00 | 0.00 | 0.00 | ||
| 20260904173506 | 77 | 327 | 0.0 | 0.0 | 0.00 | 0.00 | 0.00 | ||
| 20260904172440 | 75 | 321 | 0.0 | 0.0 | 0.00 | 0.00 | 0.00 | ||
| 20260904171928 | 75 | 202 | 0.0 | 0.0 | 0.00 | 0.00 | 0.00 | ||
| 20260904170349 | 75 | 329 | 0.0 | 0.0 | 0.00 | 0.00 | 0.00 | ||
| 20260904165837 | 76 | 159 | 0.0 | 0.0 | 0.00 | 0.00 | 0.00 | ||
| 20260904165323 | 76 | 315 | 0.0 | 0.0 | 0.00 | 0.00 | 0.00 | ||
| 20260904164811 | 76 | 336 | 0.0 | 0.0 | 0.00 | 0.00 | 0.00 | ||
| 20260904164259 | 77 | 347 | 0.0 | 0.0 | 0.00 | 0.00 | 0.00 | ||
| 20260904163745 | 79 | 317 | 0.0 | 0.0 | 0.00 | 0.00 | 0.00 | ||
| 20260904163232 | 81 | 315 | 0.0 | 0.0 | 0.00 | 0.00 | 0.00 | ||
| 20260904162718 | 82 | 331 | 0.0 | 0.0 | 0.00 | 0.00 | 0.00 | ||
| 20260904162206 | 81 | 337 | 0.0 | 0.0 | 0.00 | 0.00 | 0.00 | ||
| 20260904161653 | 80 | 315 | 0.0 | 0.0 | 0.00 | 0.00 | 0.00 | ||
| 20260904160627 | 76 | 311 | 0.0 | 0.0 | 0.00 | 0.00 | 0.00 | ||
| 20260904160114 | 76 | 313 | 0.0 | 0.0 | 0.00 | 0.00 | 0.00 | ||
| 20260904155602 | 73 | 342 | 0.0 | 0.0 | 0.00 | 0.00 | 0.00 | ||
| 20260904155049 | 71 | 309 | 0.0 | 0.0 | 0.00 | 0.00 | 0.00 | ||
| 20260904151419 | 59 | 337 | 0.0 | 0.0 | 0.00 | 0.00 | 0.00 | ||
| 20260904150907 | 58 | 331 | 0.0 | 0.0 | 0.00 | 0.00 | 0.00 | ||
| 20260904145841 | 56 | 315 | 0.0 | 0.0 | 0.00 | 0.00 | 0.00 | ||
| 20260904144303 | 54 | 290 | 0.0 | 0.0 | 0.00 | 0.00 | 0.00 | ||
| 20260904143749 | 53 | 35 | 0.0 | 0.0 | 0.00 | 0.00 | 0.00 | ||
| 20260904140632 | 50 | 0 | 0.0 | 0.0 | 0.00 | 0.00 | 0.00 | ||
| 20260904140119 | 49 | 337 | 0.0 | 0.0 | 0.00 | 0.00 | 0.00 | ||
| 20260904131936 | 49 | 201 | 0.0 | 0.0 | 0.00 | 0.00 | 0.00 | ||
| 20260904130911 | 49 | 316 | 0.0 | 0.0 | 0.00 | 0.00 | 0.00 | ||
| 20260904130358 | 49 | 337 | 0.0 | 0.0 | 0.00 | 0.00 | 0.00 | ||
| 20260904124819 | 49 | 247 | 0.0 | 0.0 | 0.00 | 0.00 | 0.00 | ||
| 20260904124307 | 49 | 99 | 0.0 | 0.0 | 0.00 | 0.00 | 0.00 | ||
| 20260904123754 | 48 | 292 | 0.0 | 0.0 | 0.00 | 0.00 | 0.00 | ||
| 20260904122728 | 48 | 337 | 0.0 | 0.0 | 0.00 | 0.00 | 0.00 | ||
| 20260904115059 | 49 | 337 | 0.0 | 0.0 | 0.00 | 0.00 | 0.00 | ||
| 20260904114545 | 49 | 337 | 0.0 | 0.0 | 0.00 | 0.00 | 0.00 | ||
| 20260904113520 | 49 | 106 | 0.0 | 0.0 | 0.00 | 0.00 | 0.00 | ||
| 20260904110915 | 50 | 43 | 0.0 | 0.0 | 0.00 | 0.00 | 0.00 | ||
| 20260904110403 | 50 | 86 | 0.0 | 0.0 | 0.00 | 0.00 | 0.00 | ||
| 20260904105851 | 51 | 119 | 0.0 | 0.0 | 0.00 | 0.00 | 0.00 | ||
| 20260904104824 | 52 | 56 | 0.0 | 0.0 | 0.00 | 0.00 | 0.00 | ||
| 20260904104312 | 53 | 337 | 0.0 | 0.0 | 0.00 | 0.00 | 0.00 | ||
| 20260904103759 | 53 | 202 | 0.0 | 0.0 | 0.00 | 0.00 | 0.00 | ||
| 20260904101707 | 53 | 337 | 0.0 | 0.0 | 0.00 | 0.00 | 0.00 | ||
| 20260904101154 | 53 | 225 | 0.0 | 0.0 | 0.00 | 0.00 | 0.00 | ||
| 20260904100641 | 54 | 337 | 0.0 | 0.0 | 0.00 | 0.00 | 0.00 | ||
| 20260904095617 | 54 | 180 | 0.0 | 0.0 | 0.00 | 0.00 | 0.00 | ||
| 20260904095104 | 54 | 337 | 0.0 | 0.0 | 0.00 | 0.00 | 0.00 | ||
| 20260904094551 | 54 | 337 | 0.0 | 0.0 | 0.00 | 0.00 | 0.00 | ||
| 20260904093525 | 53 | 112 | 0.0 | 0.0 | 0.00 | 0.00 | 0.00 | ||
| 20260904092501 | 52 | 337 | 0.0 | 0.0 | 0.00 | 0.00 | 0.00 | ||
| 20260904091946 | 52 | 337 | 0.0 | 0.0 | 0.00 | 0.00 | 0.00 | ||
| 20260904091435 | 52 | 315 | 0.0 | 0.0 | 0.00 | 0.00 | 0.00 | ||
| 20260904085343 | 54 | 337 | 0.0 | 0.0 | 0.00 | 0.00 | 0.00 | ||
| 20260904084829 | 54 | 337 | 0.0 | 0.0 | 0.00 | 0.00 | 0.00 | ||
| 20260904084316 | 54 | 337 | 0.0 | 0.0 | 0.00 | 0.00 | 0.00 | ||
| 20260904083804 | 53 | 337 | 0.0 | 0.0 | 0.00 | 0.00 | 0.00 | ||
| 20260904083250 | 53 | 337 | 0.0 | 0.0 | 0.00 | 0.00 | 0.00 | ||
| 20260904082738 | 52 | 337 | 0.0 | 0.0 | 0.00 | 0.00 | 0.00 | ||
| 20260904081200 | 53 | 337 | 0.0 | 0.0 | 0.00 | 0.00 | 0.00 | ||
| 20260904080646 | 53 | 337 | 0.0 | 0.0 | 0.00 | 0.00 | 0.00 | ||
| 20260904074042 | 54 | 337 | 0.0 | 0.0 | 0.00 | 0.00 | 0.00 | ||
| 20260904073529 | 54 | 337 | 0.0 | 0.0 | 0.00 | 0.00 | 0.00 | ||
| 20260904071438 | 54 | 337 | 0.0 | 0.0 | 0.00 | 0.00 | 0.00 | ||
| 20260904065859 | 55 | 135 | 0.0 | 0.0 | 0.00 | 0.00 | 0.00 | ||
| 20260904065346 | 55 | 315 | 0.0 | 0.0 | 0.00 | 0.00 | 0.00 | ||
| 20260904064834 | 56 | 180 | 0.0 | 0.0 | 0.00 | 0.00 | 0.00 | ||
| 20260904063255 | 57 | 337 | 0.0 | 0.0 | 0.00 | 0.00 | 0.00 | ||
| 20260904062230 | 58 | 136 | 0.0 | 0.0 | 0.00 | 0.00 | 0.00 | ||
| 20260904061204 | 57 | 213 | 0.0 | 0.0 | 0.00 | 0.00 | 0.00 | ||
| 20260904060651 | 57 | 337 | 0.0 | 0.0 | 0.00 | 0.00 | 0.00 | ||
| 20260904053021 | 58 | 337 | 0.0 | 0.0 | 0.00 | 0.00 | 0.00 | ||
| 20260904051955 | 58 | 225 | 0.0 | 0.0 | 0.00 | 0.00 | 0.00 | ||
| 20260904051443 | 58 | 337 | 0.0 | 0.0 | 0.00 | 0.00 | 0.00 | ||
| 20260904050417 | 59 | 337 | 0.0 | 0.0 | 0.00 | 0.00 | 0.00 | ||
| 20260904045904 | 59 | 122 | 0.0 | 0.0 | 0.00 | 0.00 | 0.00 | ||
| 20260904044838 | 59 | 337 | 0.0 | 0.0 | 0.00 | 0.00 | 0.00 | ||
| 20260904043813 | 59 | 337 | 0.0 | 0.0 | 0.00 | 0.00 | 0.00 | ||
| 20260904043300 | 60 | 303 | 0.0 | 0.0 | 0.00 | 0.00 | 0.00 | ||
| 20260904042234 | 61 | 337 | 0.0 | 0.0 | 0.00 | 0.00 | 0.00 | ||
| 20260904041210 | 62 | 337 | 0.0 | 0.0 | 0.00 | 0.00 | 0.00 | ||
| 20260904040655 | 61 | 337 | 0.0 | 0.0 | 0.00 | 0.00 | 0.00 | ||
| 20260904035118 | 61 | 108 | 0.0 | 0.0 | 0.00 | 0.00 | 0.00 | ||
| 20260904034052 | 61 | 240 | 0.0 | 0.0 | 0.00 | 0.00 | 0.00 | ||
| 20260904033539 | 61 | 270 | 0.0 | 0.0 | 0.00 | 0.00 | 0.00 | ||
| 20260904033026 | 61 | 337 | 0.0 | 0.0 | 0.00 | 0.00 | 0.00 | ||
| 20260904032000 | 62 | 337 | 0.0 | 0.0 | 0.00 | 0.00 | 0.00 | ||
| 20260904030935 | 63 | 348 | 0.0 | 0.0 | 0.00 | 0.00 | 0.00 | ||
| 20260904030421 | 63 | 93 | 0.0 | 0.0 | 0.00 | 0.00 | 0.00 |